Time,TemperatureF,DewpointF,PressureIn,WindDirection,WindDirectionDegrees,WindSpeedMPH,WindSpeedGustMPH,Humidity,HourlyPrecipIn,Conditions,Clouds,dailyrainin,SoftwareType,DateUTC
2013-02-18 00:01:00,42.0,35.0,29.99,WSW,248,0.0,0.0,76,0.00,,,0.00,,2013-02-18 08:01:00,
2013-02-18 00:11:00,42.0,35.0,29.99,WSW,248,0.0,0.0,76,0.00,,,0.00,,2013-02-18 08:11:00,
2013-02-18 00:21:00,41.0,35.0,29.99,WSW,248,0.0,0.0,78,0.00,,,0.00,,2013-02-18 08:21:00,
2013-02-18 00:32:00,41.0,35.0,30.00,WSW,248,0.0,0.0,79,0.00,,,0.00,,2013-02-18 08:32:00,
2013-02-18 00:41:00,41.0,35.0,30.00,WSW,248,0.0,0.0,79,0.00,,,0.00,,2013-02-18 08:41:00,
2013-02-18 00:52:00,41.0,35.0,29.99,WSW,248,0.0,1.0,79,0.00,,,0.00,,2013-02-18 08:52:00,
2013-02-18 01:02:00,41.0,35.0,29.99,WSW,248,0.0,0.0,79,0.00,,,0.00,,2013-02-18 09:02:00,
2013-02-18 01:11:00,41.0,35.0,29.99,WSW,248,0.0,0.0,79,0.00,,,0.00,,2013-02-18 09:11:00,
2013-02-18 01:22:00,41.0,35.0,30.00,WSW,248,0.0,1.0,78,0.00,,,0.00,,2013-02-18 09:22:00,
2013-02-18 01:31:00,41.0,35.0,30.00,WSW,248,0.0,1.0,79,0.00,,,0.00,,2013-02-18 09:31:00,
2013-02-18 01:41:00,41.0,35.0,30.00,WSW,248,0.0,1.0,79,0.00,,,0.00,,2013-02-18 09:41:00,
2013-02-18 01:52:00,40.0,34.0,30.00,WSW,248,0.0,0.0,79,0.00,,,0.00,,2013-02-18 09:52:00,
2013-02-18 02:01:00,40.0,34.0,30.00,WSW,248,0.0,0.0,80,0.00,,,0.00,,2013-02-18 10:01:00,
2013-02-18 02:11:00,40.0,34.0,30.00,WSW,248,0.0,0.0,80,0.00,,,0.00,,2013-02-18 10:11:00,
2013-02-18 02:21:00,39.0,33.0,30.00,WSW,248,0.0,0.0,80,0.00,,,0.00,,2013-02-18 10:21:00,
2013-02-18 02:31:00,39.0,34.0,29.99,WSW,248,0.0,0.0,81,0.00,,,0.00,,2013-02-18 10:31:00,
2013-02-18 02:41:00,39.0,34.0,29.99,WSW,248,0.0,0.0,81,0.00,,,0.00,,2013-02-18 10:41:00,
2013-02-18 02:52:00,39.0,34.0,29.99,WSW,248,0.0,0.0,82,0.00,,,0.00,,2013-02-18 10:52:00,
2013-02-18 03:01:00,39.0,34.0,29.99,WSW,248,0.0,1.0,83,0.00,,,0.00,,2013-02-18 11:01:00,
2013-02-18 03:11:00,39.0,34.0,29.99,WSW,248,0.0,1.0,83,0.00,,,0.00,,2013-02-18 11:11:00,
2013-02-18 03:21:00,39.0,34.0,29.98,WSW,248,1.0,2.0,83,0.00,,,0.00,,2013-02-18 11:21:00,
2013-02-18 03:31:00,38.0,33.0,29.98,WSW,246,0.0,1.0,83,0.00,,,0.00,,2013-02-18 11:31:00,
2013-02-18 03:41:00,38.0,33.0,29.98,WSW,246,0.0,1.0,83,0.00,,,0.00,,2013-02-18 11:41:00,
2013-02-18 03:52:00,38.0,33.0,29.98,WSW,246,0.0,1.0,83,0.00,,,0.00,,2013-02-18 11:52:00,
2013-02-18 04:01:00,38.0,34.0,29.98,WSW,245,0.0,2.0,84,0.00,,,0.00,,2013-02-18 12:01:00,
2013-02-18 04:11:00,38.0,34.0,29.98,WSW,245,0.0,2.0,84,0.00,,,0.00,,2013-02-18 12:11:00,
2013-02-18 04:21:00,38.0,34.0,29.97,SSE,160,0.0,2.0,84,0.00,,,0.00,,2013-02-18 12:21:00,
2013-02-18 04:31:00,38.0,33.0,29.97,SE,146,0.0,1.0,83,0.00,,,0.00,,2013-02-18 12:31:00,
2013-02-18 04:42:00,38.0,33.0,29.97,SE,146,0.0,1.0,83,0.00,,,0.00,,2013-02-18 12:42:00,
2013-02-18 04:52:00,37.0,32.0,29.97,SE,146,0.0,1.0,83,0.00,,,0.00,,2013-02-18 12:52:00,
2013-02-18 05:01:00,37.0,33.0,29.97,SE,146,0.0,0.0,84,0.00,,,0.00,,2013-02-18 13:01:00,
2013-02-18 05:11:00,37.0,33.0,29.97,SE,146,0.0,0.0,84,0.00,,,0.00,,2013-02-18 13:11:00,
2013-02-18 05:22:00,37.0,33.0,29.98,SE,146,0.0,1.0,84,0.00,,,0.00,,2013-02-18 13:22:00,
2013-02-18 05:31:00,37.0,32.0,29.99,SE,146,0.0,1.0,83,0.00,,,0.00,,2013-02-18 13:31:00,
2013-02-18 05:41:00,37.0,32.0,29.99,SE,146,0.0,1.0,83,0.00,,,0.00,,2013-02-18 13:41:00,
2013-02-18 05:53:00,37.0,33.0,29.99,SE,146,1.0,2.0,84,0.00,,,0.00,,2013-02-18 13:53:00,
2013-02-18 06:01:00,38.0,34.0,29.99,ESE,119,1.0,3.0,85,0.00,,,0.00,,2013-02-18 14:01:00,
2013-02-18 06:11:00,38.0,34.0,29.99,ESE,119,1.0,3.0,85,0.00,,,0.00,,2013-02-18 14:11:00,
2013-02-18 06:21:00,39.0,35.0,29.99,East,98,0.0,3.0,84,0.00,,,0.00,,2013-02-18 14:21:00,
2013-02-18 06:31:00,39.0,35.0,29.99,East,101,1.0,2.0,85,0.00,,,0.00,,2013-02-18 14:31:00,
2013-02-18 06:41:00,39.0,35.0,29.99,East,101,1.0,2.0,85,0.00,,,0.00,,2013-02-18 14:41:00,
2013-02-18 06:53:00,41.0,37.0,29.99,East,101,1.0,2.0,86,0.00,,,0.00,,2013-02-18 14:53:00,
2013-02-18 07:01:00,41.0,37.0,29.99,East,101,0.0,1.0,87,0.00,,,0.00,,2013-02-18 15:01:00,
2013-02-18 07:11:00,41.0,37.0,29.99,East,101,0.0,1.0,87,0.00,,,0.00,,2013-02-18 15:11:00,
2013-02-18 07:21:00,42.0,38.0,29.99,East,101,0.0,1.0,86,0.00,,,0.00,,2013-02-18 15:21:00,
2013-02-18 07:31:00,42.0,38.0,29.99,ENE,76,0.0,3.0,87,0.00,,,0.00,,2013-02-18 15:31:00,
2013-02-18 07:41:00,42.0,38.0,29.99,ENE,76,0.0,3.0,87,0.00,,,0.00,,2013-02-18 15:41:00,
2013-02-18 07:52:00,43.0,39.0,30.00,ENE,76,0.0,0.0,87,0.00,,,0.00,,2013-02-18 15:52:00,
2013-02-18 08:01:00,44.0,40.0,30.00,South,186,1.0,3.0,87,0.00,,,0.00,,2013-02-18 16:01:00,
2013-02-18 08:11:00,44.0,40.0,30.00,South,186,1.0,3.0,87,0.00,,,0.00,,2013-02-18 16:11:00,
2013-02-18 08:21:00,45.0,41.0,30.00,WSW,247,1.0,5.0,87,0.00,,,0.00,,2013-02-18 16:21:00,
2013-02-18 08:31:00,46.0,42.0,30.01,WSW,239,1.0,5.0,87,0.00,,,0.00,,2013-02-18 16:31:00,
2013-02-18 08:41:00,46.0,42.0,30.01,WSW,239,1.0,5.0,87,0.00,,,0.00,,2013-02-18 16:41:00,
2013-02-18 08:52:00,46.0,42.0,30.00,SSW,212,2.0,5.0,85,0.00,,,0.00,,2013-02-18 16:52:00,
2013-02-18 09:02:00,47.0,43.0,30.01,SW,218,2.0,6.0,85,0.00,,,0.00,,2013-02-18 17:02:00,
2013-02-18 09:11:00,47.0,43.0,30.01,SW,218,2.0,6.0,85,0.00,,,0.00,,2013-02-18 17:11:00,
2013-02-18 09:21:00,48.0,43.0,30.01,West,262,3.0,6.0,82,0.00,,,0.00,,2013-02-18 17:21:00,
2013-02-18 09:31:00,48.0,42.0,30.01,WSW,244,3.0,5.0,81,0.00,,,0.00,,2013-02-18 17:31:00,
2013-02-18 09:42:00,48.0,42.0,30.01,WSW,244,3.0,5.0,81,0.00,,,0.00,,2013-02-18 17:42:00,
2013-02-18 09:52:00,48.0,41.0,30.01,West,272,4.0,8.0,78,0.00,,,0.00,,2013-02-18 17:52:00,
2013-02-18 10:01:00,49.0,42.0,30.01,WSW,255,4.0,9.0,76,0.00,,,0.00,,2013-02-18 18:01:00,
2013-02-18 10:11:00,49.0,42.0,30.01,WSW,255,4.0,9.0,76,0.00,,,0.00,,2013-02-18 18:11:00,
2013-02-18 10:22:00,49.0,41.0,30.01,SW,231,6.0,11.0,75,0.00,,,0.00,,2013-02-18 18:22:00,
2013-02-18 10:31:00,49.0,41.0,30.01,SSW,209,4.0,11.0,75,0.00,,,0.00,,2013-02-18 18:31:00,
2013-02-18 10:41:00,49.0,41.0,30.01,SSW,209,4.0,11.0,75,0.00,,,0.00,,2013-02-18 18:41:00,
2013-02-18 10:52:00,49.0,41.0,30.02,SSW,194,5.0,11.0,75,0.00,,,0.00,,2013-02-18 18:52:00,
2013-02-18 11:01:00,49.0,41.0,30.01,SW,236,5.0,12.0,75,0.00,,,0.00,,2013-02-18 19:01:00,
2013-02-18 11:11:00,49.0,41.0,30.01,SW,236,5.0,12.0,75,0.00,,,0.00,,2013-02-18 19:11:00,
2013-02-18 11:21:00,49.0,42.0,30.01,SW,215,3.0,11.0,76,0.00,,,0.00,,2013-02-18 19:21:00,
2013-02-18 11:32:00,50.0,42.0,30.01,SSW,204,5.0,9.0,75,0.00,,,0.00,,2013-02-18 19:32:00,
2013-02-18 11:42:00,50.0,42.0,30.01,SSW,204,5.0,9.0,75,0.00,,,0.00,,2013-02-18 19:42:00,
2013-02-18 11:52:00,51.0,42.0,30.01,SW,232,6.0,10.0,71,0.00,,,0.00,,2013-02-18 19:52:00,
2013-02-18 12:01:00,51.0,42.0,30.01,WSW,254,4.0,12.0,70,0.00,,,0.00,,2013-02-18 20:01:00,
2013-02-18 12:11:00,51.0,42.0,30.01,WSW,254,4.0,12.0,70,0.00,,,0.00,,2013-02-18 20:11:00,
2013-02-18 12:21:00,51.0,42.0,30.00,West,265,3.0,10.0,70,0.00,,,0.00,,2013-02-18 20:21:00,
2013-02-18 12:31:00,50.0,41.0,29.99,SW,223,5.0,12.0,70,0.00,,,0.00,,2013-02-18 20:31:00,
2013-02-18 12:41:00,50.0,41.0,29.99,SW,223,5.0,12.0,70,0.00,,,0.00,,2013-02-18 20:41:00,
2013-02-18 12:53:00,50.0,40.0,29.99,WSW,248,5.0,10.0,69,0.00,,,0.00,,2013-02-18 20:53:00,
2013-02-18 13:01:00,50.0,40.0,29.98,West,264,6.0,13.0,68,0.00,,,0.00,,2013-02-18 21:01:00,
2013-02-18 13:11:00,50.0,40.0,29.98,West,264,6.0,13.0,68,0.00,,,0.00,,2013-02-18 21:11:00,
2013-02-18 13:21:00,51.0,40.0,29.98,WNW,287,7.0,13.0,67,0.00,,,0.00,,2013-02-18 21:21:00,
2013-02-18 13:31:00,51.0,40.0,29.98,WSW,246,8.0,12.0,66,0.00,,,0.00,,2013-02-18 21:31:00,
2013-02-18 13:41:00,51.0,40.0,29.98,WSW,246,8.0,12.0,66,0.00,,,0.00,,2013-02-18 21:41:00,
2013-02-18 13:52:00,52.0,40.0,29.97,WSW,242,7.0,12.0,63,0.00,,,0.00,,2013-02-18 21:52:00,
2013-02-18 14:01:00,52.0,40.0,29.96,WSW,250,5.0,12.0,63,0.00,,,0.00,,2013-02-18 22:01:00,
2013-02-18 14:11:00,52.0,39.0,29.96,West,265,5.0,13.0,62,0.00,,,0.00,,2013-02-18 22:11:00,
2013-02-18 14:21:00,52.0,39.0,29.96,West,265,5.0,13.0,62,0.00,,,0.00,,2013-02-18 22:21:00,
2013-02-18 14:32:00,52.0,39.0,29.95,West,264,6.0,12.0,60,0.00,,,0.00,,2013-02-18 22:32:00,
2013-02-18 14:42:00,52.0,39.0,29.95,West,264,6.0,12.0,60,0.00,,,0.00,,2013-02-18 22:42:00,
2013-02-18 14:53:00,52.0,39.0,29.95,SSW,207,7.0,15.0,62,0.00,,,0.00,,2013-02-18 22:53:00,
2013-02-18 15:01:00,51.0,38.0,29.96,WSW,238,6.0,15.0,62,0.00,,,0.00,,2013-02-18 23:01:00,
2013-02-18 15:11:00,51.0,38.0,29.96,WSW,238,6.0,15.0,62,0.00,,,0.00,,2013-02-18 23:11:00,
2013-02-18 15:21:00,51.0,39.0,29.96,WSW,252,4.0,10.0,64,0.00,,,0.00,,2013-02-18 23:21:00,
2013-02-18 15:31:00,51.0,40.0,29.96,WSW,250,4.0,13.0,65,0.00,,,0.00,,2013-02-18 23:31:00,
2013-02-18 15:41:00,51.0,40.0,29.96,WSW,250,4.0,13.0,65,0.00,,,0.00,,2013-02-18 23:41:00,
2013-02-18 15:53:00,50.0,39.0,29.95,West,266,4.0,10.0,65,0.00,,,0.00,,2013-02-18 23:53:00,
2013-02-18 16:01:00,50.0,38.0,29.95,SW,218,8.0,12.0,63,0.00,,,0.00,,2013-02-19 00:01:00,
2013-02-18 16:11:00,50.0,38.0,29.95,SW,218,8.0,12.0,63,0.00,,,0.00,,2013-02-19 00:11:00,
2013-02-18 16:21:00,50.0,38.0,29.95,WSW,238,6.0,10.0,64,0.00,,,0.00,,2013-02-19 00:21:00,
2013-02-18 16:32:00,50.0,39.0,29.95,WSW,252,6.0,13.0,66,0.00,,,0.00,,2013-02-19 00:32:00,
2013-02-18 16:41:00,50.0,39.0,29.95,WSW,252,6.0,13.0,66,0.00,,,0.00,,2013-02-19 00:41:00,
2013-02-18 16:53:00,49.0,39.0,29.95,WSW,246,7.0,13.0,67,0.00,,,0.00,,2013-02-19 00:53:00,
2013-02-18 17:02:00,49.0,38.0,29.95,West,279,6.0,15.0,65,0.00,,,0.00,,2013-02-19 01:02:00,
2013-02-18 17:11:00,49.0,38.0,29.95,West,279,6.0,15.0,65,0.00,,,0.00,,2013-02-19 01:11:00,
2013-02-18 17:22:00,49.0,37.0,29.95,SSW,211,7.0,15.0,64,0.00,,,0.00,,2013-02-19 01:22:00,
2013-02-18 17:32:00,49.0,37.0,29.95,WSW,244,7.0,13.0,63,0.00,,,0.00,,2013-02-19 01:32:00,
2013-02-18 17:42:00,49.0,37.0,29.95,WSW,244,7.0,13.0,63,0.00,,,0.00,,2013-02-19 01:42:00,
2013-02-18 17:54:00,49.0,37.0,29.94,WSW,248,4.0,14.0,64,0.00,,,0.00,,2013-02-19 01:54:00,
2013-02-18 18:01:00,48.0,37.0,29.95,WSW,250,6.0,17.0,65,0.00,,,0.00,,2013-02-19 02:01:00,
2013-02-18 18:11:00,48.0,37.0,29.95,WSW,250,6.0,17.0,65,0.00,,,0.00,,2013-02-19 02:11:00,
2013-02-18 18:21:00,48.0,38.0,29.95,WSW,242,5.0,12.0,67,0.00,,,0.00,,2013-02-19 02:21:00,
2013-02-18 18:32:00,48.0,38.0,29.95,SSW,205,5.0,9.0,69,0.00,,,0.00,,2013-02-19 02:32:00,
2013-02-18 18:42:00,48.0,38.0,29.95,SSW,205,5.0,9.0,69,0.00,,,0.00,,2013-02-19 02:42:00,
2013-02-18 18:54:00,48.0,39.0,29.95,WSW,246,5.0,11.0,70,0.00,,,0.00,,2013-02-19 02:54:00,
2013-02-18 19:11:00,48.0,39.0,29.95,WSW,240,5.0,13.0,71,0.00,,,0.00,,2013-02-19 03:11:00,
2013-02-18 19:21:00,47.0,38.0,29.95,WSW,241,5.0,14.0,72,0.00,,,0.00,,2013-02-19 03:21:00,
2013-02-18 19:31:00,47.0,38.0,29.95,West,261,6.0,11.0,72,0.00,,,0.00,,2013-02-19 03:31:00,
2013-02-18 19:42:00,47.0,38.0,29.95,West,261,6.0,11.0,72,0.00,,,0.00,,2013-02-19 03:42:00,
2013-02-18 19:53:00,47.0,38.0,29.95,WSW,251,4.0,8.0,72,0.00,,,0.00,,2013-02-19 03:53:00,
2013-02-18 20:01:00,47.0,38.0,29.95,WSW,242,3.0,6.0,72,0.00,,,0.00,,2013-02-19 04:01:00,
2013-02-18 20:12:00,47.0,38.0,29.95,WSW,242,3.0,6.0,72,0.00,,,0.00,,2013-02-19 04:12:00,
2013-02-18 20:21:00,47.0,38.0,29.95,WSW,250,5.0,9.0,72,0.00,,,0.00,,2013-02-19 04:21:00,
2013-02-18 20:32:00,47.0,38.0,29.95,WSW,244,4.0,9.0,72,0.00,,,0.00,,2013-02-19 04:32:00,
2013-02-18 20:42:00,47.0,38.0,29.95,WSW,244,4.0,9.0,72,0.00,,,0.00,,2013-02-19 04:42:00,
2013-02-18 20:53:00,47.0,38.0,29.95,SSW,208,5.0,10.0,71,0.00,,,0.00,,2013-02-19 04:53:00,
2013-02-18 21:01:00,47.0,38.0,29.95,WSW,238,3.0,8.0,72,0.00,,,0.00,,2013-02-19 05:01:00,
2013-02-18 21:12:00,47.0,38.0,29.95,WSW,238,3.0,8.0,72,0.00,,,0.00,,2013-02-19 05:12:00,
2013-02-18 21:22:00,47.0,39.0,29.95,SW,219,4.0,8.0,73,0.00,,,0.00,,2013-02-19 05:22:00,
2013-02-18 21:32:00,47.0,39.0,29.95,SW,219,5.0,9.0,73,0.00,,,0.00,,2013-02-19 05:32:00,
2013-02-18 21:42:00,47.0,39.0,29.95,SW,219,5.0,9.0,73,0.00,,,0.00,,2013-02-19 05:42:00,
2013-02-18 21:52:00,47.0,39.0,29.96,SW,232,4.0,7.0,73,0.00,,,0.00,,2013-02-19 05:52:00,
2013-02-18 22:02:00,47.0,39.0,29.96,SSW,213,5.0,8.0,74,0.00,,,0.00,,2013-02-19 06:02:00,
2013-02-18 22:11:00,47.0,39.0,29.96,SSW,213,5.0,8.0,74,0.00,,,0.00,,2013-02-19 06:11:00,
2013-02-18 22:21:00,47.0,39.0,29.96,SSW,193,5.0,8.0,75,0.00,,,0.00,,2013-02-19 06:21:00,
2013-02-18 22:32:00,46.0,40.0,29.96,SW,225,5.0,10.0,78,0.00,,,0.00,,2013-02-19 06:32:00,
2013-02-18 22:41:00,46.0,40.0,29.96,SW,225,5.0,10.0,78,0.00,,,0.00,,2013-02-19 06:41:00,
2013-02-18 22:52:00,46.0,40.0,29.96,SSW,204,7.0,12.0,79,0.00,,,0.00,,2013-02-19 06:52:00,
2013-02-18 23:01:00,46.0,40.0,29.95,South,190,3.0,9.0,79,0.00,,,0.00,,2013-02-19 07:01:00,
2013-02-18 23:11:00,46.0,40.0,29.95,South,190,3.0,9.0,79,0.00,,,0.00,,2013-02-19 07:11:00,
2013-02-18 23:21:00,46.0,39.0,29.95,SW,226,4.0,7.0,77,0.00,,,0.00,,2013-02-19 07:21:00,
2013-02-18 23:31:00,46.0,38.0,29.94,SW,234,5.0,11.0,74,0.00,,,0.00,,2013-02-19 07:31:00,
2013-02-18 23:41:00,46.0,38.0,29.94,SW,234,5.0,11.0,74,0.00,,,0.00,,2013-02-19 07:41:00,
2013-02-18 23:52:00,46.0,39.0,29.94,SW,229,4.0,7.0,77,0.00,,,0.00,,2013-02-19 07:52:00,